Location: Newark
(56.0692°N, 115.8617°E)
Time: 02:18:38
(UTC+00:00)

UWE-3 - Visible Passes

Search period start: 17 October 2021 00:00
Search period end: 27 October 2021 00:00
Orbit: 584 x 682 km, 97.7° (Epoch: 16 October)

Date Brightness Start Highest point End Pass type
(mag) Time Alt. Az. Time Alt. Az. Time Alt. Az.
17 Oct ? 20:18:40 10° NNE 20:22:54 64° ESE 20:25:40 20° S visible
17 Oct ? 21:55:41 10° N 21:58:57 22° WNW 22:02:10 10° WSW visible
18 Oct ? 19:04:36 10° NE 19:07:05 15° E 19:09:30 10° ESE visible
18 Oct ? 20:39:53 10° NNE 20:44:08 84° WNW 20:46:55 21° SSW visible
18 Oct ? 22:17:21 10° NNW 22:19:56 16° NW 22:22:29 10° W visible
19 Oct ? 19:25:13 10° NE 19:28:34 22° E 19:30:44 15° SE visible
19 Oct ? 21:01:10 10° N 21:05:19 55° WNW 21:08:09 19° SW visible
20 Oct ? 19:46:08 10° NNE 19:49:58 33° E 19:51:58 21° SE visible
20 Oct ? 21:22:33 10° N 21:26:26 37° WNW 21:29:23 15° SW visible
21 Oct ? 20:07:11 10° NNE 20:11:18 51° E 20:13:12 28° SSE visible
21 Oct ? 21:44:01 10° N 21:47:29 26° WNW 21:50:37 12° WSW visible
22 Oct ? 18:53:41 10° ENE 18:55:23 12° E 18:57:01 10° ESE visible
22 Oct ? 20:28:21 10° NNE 20:32:34 79° ESE 20:34:26 32° S visible
22 Oct ? 22:05:35 10° N 22:08:30 19° NW 22:11:22 10° W visible
23 Oct ? 19:13:57 10° NE 19:16:52 18° E 19:18:15 16° ESE visible
23 Oct ? 20:49:35 10° N 20:53:46 68° WNW 20:55:40 31° SW visible
23 Oct ? 22:27:24 10° NNW 22:29:27 13° NW 22:31:28 10° W visible
24 Oct ? 19:34:43 10° NE 19:38:18 27° E 19:39:29 23° ESE visible
24 Oct ? 21:10:55 10° N 21:14:54 45° WNW 21:16:53 25° SW visible
25 Oct ? 19:55:42 10° NNE 19:59:39 40° E 20:00:43 34° SE visible
25 Oct ? 21:32:19 10° N 21:35:59 31° WNW 21:38:07 19° WSW visible
26 Oct ? 20:16:48 10° NNE 20:20:57 63° ESE 20:21:56 46° SSE visible
26 Oct ? 21:53:49 10° N 21:57:01 22° WNW 21:59:21 14° W visible
